This demonstration page uses our WeatherBlox Daily Observations layout. Learn more.

Left ArrowRight Arrow

Hourly Observations for September 27, 2021

Temp ( °F °C ) Dew Point ( °F °C ) Humidity (%) Winds ( mph kmh ) Pressure ( in mb ) Visibility ( mi km ) Precip ( " mm )
12:53 am 00:53 Clear 74 23.3 54 12.2 50 50 SSE 9 15 29.88 1012 10 16 0.00 0.00
1:53 am 01:53 Mostly Cloudy 74 23.3 54 12.2 50 50 SSE 10 17 29.88 1012 10 16 0.00 0.00
2:53 am 02:53 Mostly Cloudy 71 21.7 59 15 66 66 W 16 26 29.90 1013 10 16 0.00 0.00
3:00 am 03:00 Mostly Cloudy 71 21.7 59 15 66 66 W 16 26 29.91 1013 10 16 0.00 0.00
3:31 am 03:31 Mostly Cloudy with Nearby Thunderstorms 69 20.6 60 15.6 73 73 W 12 19 29.92 1013 10 16 0.00 0.00
3:53 am 03:53 Mostly Cloudy with Nearby Thunderstorms 68 20 61 16.1 78 78 W 16 26 29.89 1012 10 16 0.00 0.00
4:01 am 04:01 Partly Cloudy 68 20 61 16.1 78 78 W 15 24 29.92 1013 10 16 0.00 0.00
4:53 am 04:53 Cloudy with Light Rain 67 19.4 60 15.6 79 79 W 16 26 29.90 1013 10 16 0.00 0.00
5:53 am 05:53 Cloudy with Light Rain 65 18.3 61 16.1 87 87 W 13 20 29.89 1012 8 13 0.06 1.52
6:53 am 06:53 Mostly Cloudy 67 19.4 62 16.7 84 84 W 5 7 29.89 1012 10 16 0.01 0.25
7:53 am 07:53 Partly Cloudy 66 18.9 63 17.2 90 90 W 3 6 29.89 1012 10 16 0.00 0.00
8:53 am 08:53 Sunny 68 20 63 17.2 84 84 WNW 5 7 29.88 1012 10 16 0.00 0.00
9:53 am 09:53 Sunny 73 22.8 60 15.6 64 64 W 12 19 29.88 1012 10 16 0.00 0.00
10:53 am 10:53 Sunny 76 24.4 60 15.6 58 58 W 13 20 29.88 1012 10 16 0.00 0.00
11:53 am 11:53 Sunny 79 26.1 60 15.6 52 52 WSW 14 22 29.88 1012 10 16 0.00 0.00
12:53 pm 12:53 Sunny 82 27.8 60 15.6 47 47 SW 8 13 29.87 1012 10 16 0.00 0.00
1:53 pm 13:53 Sunny 85 29.4 56 13.3 37 37 WSW 8 13 29.84 1010 10 16 0.00 0.00
2:53 pm 14:53 Sunny 87 30.6 55 12.8 34 34 W 12 19 29.81 1010 10 16 0.00 0.00
3:53 pm 15:53 Sunny 89 31.7 51 10.6 27 27 W 9 15 29.79 1009 10 16 0.00 0.00
4:53 pm 16:53 Mostly Sunny 89 31.7 48 8.9 24 24 SW 13 20 29.78 1008 10 16 0.00 0.00
5:53 pm 17:53 Mostly Sunny 89 31.7 46 7.8 23 23 WSW 9 15 29.77 1008 10 16 0.00 0.00
6:53 pm 18:53 Sunny 87 30.6 47 8.3 25 25 W 14 22 29.78 1008 10 16 0.00 0.00
7:53 pm 19:53 Clear 83 28.3 49 9.4 31 31 WSW 7 11 29.79 1009 10 16 0.00 0.00
8:53 pm 20:53 Mostly Cloudy 78 25.6 58 14.4 50 50 SSE 12 19 29.81 1010 10 16 0.00 0.00
9:53 pm 21:53 Clear 73 22.8 56 13.3 55 55 S 6 9 29.83 1010 10 16 0.00 0.00
10:53 pm 22:53 Clear 71 21.7 58 14.4 63 63 S 8 13 29.83 1010 10 16 0.00 0.00
11:53 pm 23:53 Clear 69 20.6 58 14.4 68 68 SSE 7 11 29.84 1011 10 16 0.00 0.00

Powered by AerisWeather